New York Downtown Manhattan/w, NY

5:59 AM EDT on October 16, 2019 (GMT -0400)
New York Downtown Manhattan/w

Weather History for KJRB - August, 2019

Change the Weather History Date:

Wednesday, August 21, 2019

  Actual Average (WUND) Record (WUND)
Temperature  
Mean Temperature 82 °F -  
Max Temperature 88 °F - - (-1)
Min Temperature 75 °F - - (-1)
Cooling Degree Days 16    
Growing Degree Days 32 (Base 50)    
Moisture  
Dew Point 73 °F    
Average Humidity 79    
Maximum Humidity 94    
Minimum Humidity 58    
Precipitation  
Precipitation 0.09 in - - ()
Sea Level Pressure  
Sea Level Pressure 29.94 in    
Wind  
Wind Speed 5 mph ()    
Max Wind Speed 16 mph    
Max Gust Speed 50 mph    
Visibility 9.4 miles    
Events Rain , Thunderstorm    
Averages and records for this station are not official NWS values.
T = Trace of Precipitation, MM = Missing Value Source: Averaged Metar Reports

Daily Weather History Graph

Daily Weather History Graph

Search for Another Location

Airport or City:

Astronomy

Aug. 21, 2019 Rise Set
Actual Time 6:12 AM EDT 7:45 PM EDT
Civil Twilight 5:43 AM EDT 8:14 PM EDT
Nautical Twilight 5:08 AM EDT 8:49 PM EDT
Astronomical Twilight 4:31 AM EDT 9:26 PM EDT
Moon 11:00 PM EDT (8/21) 11:47 AM EDT (8/21)
Length of Visible Light 14h 31m
Length of Day
13h 33m
Waning Gibbous, 69% of the Moon is Illuminated
Aug 21
Waning Gibbous
Aug 23
Last Quarter
Aug 30
New
Sep 5
First Quarter
Sep 14
Full

Hourly Weather History & Observations

Time (EDT) Temp. Heat Index Dew Point Humidity Pressure Visibility Wind Dir Wind Speed Gust Speed Precip Events Conditions
12:56 AM 78.1 °F - 71.1 °F 79% 30.04 in 10.0 mi Calm Calm - N/A   Clear
1:56 AM 77.0 °F - 73.0 °F 88% 30.04 in 10.0 mi SSE 6.9 mph - N/A   Clear
2:56 AM 77.0 °F - 73.0 °F 88% 30.03 in 10.0 mi West 3.5 mph - N/A   Scattered Clouds
3:05 AM 77.0 °F - 73.4 °F 89% 30.03 in 10.0 mi WSW 4.6 mph - N/A   Mostly Cloudy
3:13 AM 77.0 °F - 73.4 °F 89% 30.03 in 10.0 mi SSW 6.9 mph - N/A   Overcast
3:56 AM 77.0 °F - 73.9 °F 90% 30.01 in 10.0 mi WSW 6.9 mph - N/A   Overcast
4:36 AM 75.2 °F - 73.4 °F 94% 29.99 in 9.0 mi Calm Calm - N/A   Partly Cloudy
4:56 AM 75.9 °F - 73.9 °F 94% 29.98 in 10.0 mi WSW 3.5 mph - N/A   Scattered Clouds
5:06 AM 75.2 °F - 73.4 °F 94% 29.98 in 10.0 mi SW 3.5 mph - N/A   Mostly Cloudy
5:56 AM 75.9 °F - 73.9 °F 94% 29.98 in 8.0 mi Calm Calm - N/A   Overcast
6:23 AM 75.2 °F - 73.4 °F 94% 29.98 in 7.0 mi West 3.5 mph - N/A   Partly Cloudy
6:56 AM 75.9 °F - 73.9 °F 94% 29.98 in 9.0 mi Calm Calm - N/A   Clear
7:56 AM 77.0 °F - 73.9 °F 90% 29.99 in 9.0 mi WSW 3.5 mph - N/A   Clear
8:56 AM 79.0 °F - 73.0 °F 82% 29.98 in 10.0 mi SSW 4.6 mph - N/A   Clear
9:56 AM 82.0 °F 86.7 °F 72.0 °F 71% 29.97 in 10.0 mi SW 10.4 mph - N/A   Clear
10:56 AM 84.9 °F 90.7 °F 72.0 °F 65% 29.95 in 10.0 mi SW 11.5 mph 19.6 mph N/A   Clear
11:56 AM 84.0 °F 90.2 °F 73.0 °F 69% 29.95 in 10.0 mi WSW 16.1 mph 49.5 mph N/A   Overcast
12:32 PM 82.4 °F 88.2 °F 73.4 °F 74% 29.94 in 10.0 mi West 9.2 mph - N/A   Overcast
12:56 PM 84.9 °F 91.4 °F 73.0 °F 67% 29.92 in 10.0 mi WSW 5.8 mph - N/A   Scattered Clouds
1:56 PM 88.0 °F 95.6 °F 73.0 °F 61% 29.90 in 7.0 mi SW 10.4 mph - N/A   Scattered Clouds
2:56 PM 88.0 °F 95.6 °F 73.0 °F 61% 29.88 in 10.0 mi SW 9.2 mph - N/A   Mostly Cloudy
3:40 PM 87.8 °F 95.6 °F 73.4 °F 62% 29.87 in 10.0 mi SW 10.4 mph - N/A Thunderstorm Thunderstorm
3:56 PM 88.0 °F 95.6 °F 73.0 °F 61% 29.87 in 10.0 mi SW 10.4 mph - N/A Thunderstorm Mostly Cloudy
4:04 PM 87.8 °F 95.6 °F 73.4 °F 62% 29.87 in 10.0 mi SW 8.1 mph - N/A   Mostly Cloudy
4:21 PM 87.8 °F 93.8 °F 71.6 °F 58% 29.86 in 10.0 mi SW 8.1 mph - N/A Thunderstorm Mostly Cloudy
4:56 PM 87.1 °F 93.6 °F 72.0 °F 61% 29.85 in 7.0 mi West 5.8 mph - N/A Thunderstorm Thunderstorm
5:56 PM 81.0 °F 85.8 °F 73.0 °F 77% 29.88 in 2.0 mi NW 9.2 mph 44.9 mph 0.07 in Rain Rain
6:11 PM 77.0 °F - 71.6 °F 83% 29.87 in 10.0 mi SSW 10.4 mph - 0.02 in Rain Light Rain
6:56 PM 77.0 °F - 71.1 °F 82% 29.86 in 10.0 mi Calm Calm - 0.02 in   Clear
7:56 PM 79.0 °F - 71.1 °F 77% 29.86 in 10.0 mi Calm Calm - N/A   Scattered Clouds
8:56 PM 79.0 °F - 72.0 °F 79% 29.88 in 10.0 mi WSW 3.5 mph - N/A   Partly Cloudy
9:56 PM 79.0 °F - 73.0 °F 82% 29.88 in 10.0 mi West 5.8 mph - N/A   Clear
10:56 PM 79.0 °F - 73.0 °F 82% 29.88 in 10.0 mi West 4.6 mph - N/A   Clear
11:56 PM 78.1 °F - 73.9 °F 87% 29.89 in 10.0 mi SW 6.9 mph - N/A   Mostly Cloudy